Location: Roanoke
(37.2710°N, 79.9420°W)
Time: 21:37:01
(UTC-05:00)

Transit 2A - Pass Details

Date: 30 November 2019
Orbit: 602 x 957 km, 66.7° (Epoch: 10 December)

Event Time Altitude Azimuth Distance (km) Brightness Sun altitude
Rises 19:32:18 0° 320° (NW) 2,875 9.4 -29.2°
Reaches altitude 10° 19:34:43 10° 309° (NW) 1,990 8.7 -29.7°
Maximum altitude 19:38:33 29° 249° (WSW) 1,185 7.5 -30.5°
Enters shadow 19:41:56 13° 194° (SSW) 1,878 8.2 -31.1°
Drops below altitude 10° 19:42:37 10° 190° (S) 2,108 - -31.3°
Sets 19:45:16 0° 179° (S) 3,077 - -31.8°
